Flag for Norway Weather past 2 weeks in Spydeberg, Norway

Now
45 °F

Partly sunny.


Feels Like: 43 °F
Forecast: 40 / 49 °F
Wind: 3 mph from Northwest

Location: Rygge

Current Time: May 27, 2015 at 6:25:36 AM

Latest Report: May 27, 2015 at 5:20 AM


Visibility: N/A

Pressure: 29.83 "Hg

Humidity: 76%

Dew point: 37 °F

Location of SpydebergLocation

Historic Weather in Spydeberg — Graph

°F

Spydeberg temperature yesterday

Maximum temperature yesterday: 59 °F (at 2:50 PM)
Minimum temperature yesterday: 43 °F (at 2:50 AM)
Average temperature yesterday: 50 °F

Past Weeks' High & Low Weather Summary

 TemperatureHumidityPressure
High64 °F (May 23, 4:50 PM)100% (May 12, 4:20 AM)30.04 "Hg (May 12, 4:20 AM)
Low34 °F (May 18, 4:50 AM)29% (May 14, 6:50 PM)29.45 "Hg (May 19, 6:50 AM)
Average49 °F72%29.79 "Hg
* Reported May 12 4:20 AM — May 27 4:50 AM, Spydeberg, Weather by CustomWeather, © 2015

Note: Actual official high and low records may vary slightly from our data, if they occured in-between our weather recording intervals... More about our weather records

Advertising

Spydeberg weather history for previous 24 hours

 ConditionsComfort  
Time TempWeatherWind HumidityBarometerVisibility
4:50 AM
Wed, May 27
45 °FPassing clouds.2 mph76%29.83 "HgN/A
4:20 AM46 °FPassing clouds.6 mph71%29.80 "HgN/A
3:50 AM45 °FPassing clouds.2 mph76%29.80 "HgN/A
3:20 AM45 °FPassing clouds.3 mph81%29.80 "HgN/A
2:50 AM45 °FPassing clouds.2 mph81%29.80 "HgN/A
2:20 AM45 °FClear.3 mph93%29.80 "Hg10 mi
1:50 AM45 °FClear.5 mph93%29.80 "Hg10 mi
1:20 AM46 °FClear.6 mph93%29.80 "Hg10 mi
12:50 AM43 °FClear.No wind93%29.80 "Hg10 mi
12:20 AM45 °FClear.1 mph93%29.80 "Hg10 mi
11:50 PM
Tue, May 26
46 °FClear.1 mph87%29.80 "Hg10 mi
11:20 PM48 °FClear.2 mph87%29.80 "Hg10 mi
10:50 PM50 °FSunny.6 mph82%29.80 "Hg10 mi
10:20 PM50 °FSunny.5 mph82%29.80 "Hg10 mi
9:50 PM52 °FSunny.3 mph77%29.80 "Hg10 mi
9:20 PM52 °FSunny.5 mph77%29.80 "Hg10 mi
8:50 PM54 °FSunny.6 mph72%29.80 "Hg10 mi
8:20 PM54 °FSunny.5 mph72%29.80 "Hg10 mi
7:50 PM54 °FSunny.7 mph63%29.80 "Hg10 mi
7:20 PM54 °FSunny.8 mph67%29.80 "Hg10 mi
6:50 PM55 °FPassing clouds.9 mph59%29.80 "HgN/A
6:20 PM55 °FSunny.13 mph59%29.80 "Hg10 mi
5:50 PM54 °FSunny.13 mph67%29.80 "Hg10 mi
5:20 PM55 °FSunny.13 mph72%29.80 "Hg10 mi
4:50 PM57 °FSunny.9 mph59%29.80 "Hg10 mi
4:20 PM57 °FScattered clouds.9 mph63%29.80 "HgN/A
3:20 PM54 °FRain. Partly sunny.13 mph63%29.80 "HgN/A
2:50 PM59 °FScattered clouds.5 mph55%29.77 "HgN/A
2:20 PM57 °FPassing clouds.6 mph55%29.77 "HgN/A
1:50 PM57 °FPartly sunny.8 mph55%29.77 "HgN/A
1:20 PM54 °FMore clouds than sun.8 mph63%29.77 "HgN/A
12:50 PM54 °FMore clouds than sun.10 mph63%29.77 "HgN/A
12:20 PM52 °FBroken clouds.9 mph67%29.77 "HgN/A
11:50 AM52 °FScattered clouds.12 mph67%29.77 "HgN/A
11:20 AM52 °FPartly sunny.9 mph67%29.80 "HgN/A
10:50 AM52 °FBroken clouds.9 mph72%29.80 "HgN/A
10:20 AM50 °FBroken clouds.5 mph76%29.77 "HgN/A
9:50 AM50 °FPartly sunny.5 mph82%29.77 "HgN/A
9:20 AM48 °FPartly sunny.5 mph87%29.77 "HgN/A
8:50 AM48 °FLight rain. Broken clouds.7 mph82%29.77 "HgN/A
8:20 AM52 °FPassing clouds.7 mph77%29.77 "HgN/A
7:50 AM46 °FSunny.7 mph87%29.77 "Hg10 mi
7:20 AM46 °FPassing clouds.6 mph87%29.77 "HgN/A
6:50 AM46 °FPassing clouds.5 mph93%29.77 "HgN/A
6:20 AM43 °FPassing clouds.2 mph100%29.77 "Hg6 mi
Weather by CustomWeather, © 2015

See weather overviewHow to use our weather pages